Regional Weather Roundup
Issued by NWS Cleveland, OH

Home | Current Version | Previous Version | Graphics & Text | Print | Product List | Glossary On
Versions: 1 2 3 4 5 6 7 8 9 10 11 12 13 14 15 16 17 18 19 20 21 22 23 24 25 26 27 28 29 30 31 32 33 34 35 36 37 38 39 40 41 42 43 44 45 46 47 48 49 50
000
ASUS41 KCLE 270512
RWRCLE
OHIO REGIONAL WEATHER ROUNDUP
NATIONAL WEATHER SERVICE WILMINGTON, OH
100 AM EDT TUE SEP 27 2016

NOTE: "FAIR" INDICATES FEW OR NO CLOUDS BELOW 12,000 FEET WITH NO
SIGNIFICANT WEATHER AND/OR OBSTRUCTIONS TO VISIBILITY.

OHZ001>008-015>018-024>027-034-035-043-044-270600-
   NORTHWEST OHIO

CITY           SKY/WX    TMP DP  RH WIND       PRES   REMARKS
DEFIANCE       FAIR      54  39  57 SW7       29.94F
FINDLAY        FAIR      53  42  66 SW6       29.96S
TOLEDO EXPRESS FAIR      51  45  79 SW7       29.93F
TOLEDO EXEC    FAIR      52  45  77 SW8       29.94F
LIMA           FAIR      55  44  66 SW10      29.98S
$$

OHZ009>014-019>023-028>033-038-089-270600-
   NORTHEAST OHIO

CITY           SKY/WX    TMP DP  RH WIND       PRES   REMARKS
CLE-HOPKINS    FAIR      57  45  64 S14G20    29.96F
CLE-LAKEFRONT  FAIR      59  46  62 S13       29.93F
CUY CO. ARPT   NOT AVBL
LORAIN-ELYRIA  FAIR      50  44  80 SW7       29.95F
ASHTABULA      FAIR      55  52  89 SW8       29.95F
AKRON-CANTON   FAIR      53  48  83 SW7       29.98F
WOOSTER        FAIR      51  47  86 SW5       29.98F
MANSFIELD      FAIR      55  44  66 SW8       29.98S
YOUNGSTOWN     FAIR      53  52  96 S6        29.97F
$$

OHZ042-051>053-060>062-070>072-077>081-270600-
  SOUTHWEST OHIO

CITY           SKY/WX    TMP DP  RH WIND       PRES   REMARKS
CINC-COVINGTON FAIR      54  51  90 SW6       30.05S
CINC-LUNKEN    FAIR      53  53 100 CALM      30.06S
HAMILTON       FAIR      48  45  89 CALM      30.05S FOG
DAYTON         FAIR      52  46  80 SW9       30.02F
WRIGHT-PAT AFB FAIR      50  47  90 S7        30.01F
DAYTON GENERAL FAIR      53  48  83 CALM      30.02F
WILMINGTON     FAIR      51  49  92 S5        30.03F
$$

OHZ036-037-039>041-045>050-054>059-063>069-073>076-082>088-270600-
  CENTRAL AND SOUTHEAST OHIO

CITY           SKY/WX    TMP DP  RH WIND       PRES   REMARKS
COLUMBUS       FAIR      54  51  90 S5        30.01S
OSU AIRPORT    FAIR      53  49  86 S7        30.01S
BOLTON FIELD   FAIR      50  48  94 SW7       30.02S
RICKENBACK AFB FAIR      51  49  92 SW5       30.02S
NEWARK         FAIR      47  45  93 CALM      30.01F
MARION         FAIR      52  44  74 SW8       29.99S
LANCASTER      FAIR      54  49  83 SW6       30.03S
ZANESVILLE     FAIR      54  52  93 SW6       30.02F
NEW PHILLY     FOG       53  53 100 E3        30.01F VSB 1/4
$$



USA.gov is the U.S. government's official web portal to all federal, state and local government web resources and services.